ATLAS 5 CENTAUR DEB, 53516

Orbit data source: Space-Track

ATLAS 5 CENTAUR DEB, 53516 is space debris in HEO originally from a launch on Wed, 17 Sep 2014 UTC launched from the Air Force Eastern Test Range (AFETR). Debris objects in space refer to the collection of defunct objects orbiting the Earth. Examples of debris include non-operational satellites, rocket bodies, and fragments generated from explosions, collisions, or faulty payload assembly.

Loading next visibility...
Identifier
53516, 2014-055DP
Orbit
HEO
Country
Flag of USUS
Related business
Flag of USUnited Launch Alliance/Lockheed Martin (US)
Manufacturer
Unknown
Mission
Spacecraft
Bus & Motor
Unknown
Mass
Unknown
Launch date (UTC)
2014-09-17 (12 years ago)
Launch vehicle
Unknown
Launch site
Air Force Eastern Test Range (AFETR)
Object type
Payload
Rocket body
Debris
Shape & HBR
Unknown shape, 1.1 m
Radar Cross Section
Medium (>0.1 m² and <1 m²)

Expand to show TLE details & history
Last TLE update: 3 days ago

TLE from 3 days ago
0 ATLAS 5 CENTAUR DEB
1 53516U 14055DP  26234.73106727 -.00000125  00000-0  00000-0 0  9994
2 53516  19.8063 149.7374 4740095 152.2281 244.1045  1.82544518 27292
Epoch: 2026-08-22T17:32Z
TLE epoch observation values (Epoch: 2026-08-22T17:32:44.212Z)
Latitude
0.00002°
Longitude
-84.52886°
Altitude
31,417.127 km
Speed
2.646 km/s
True Right ascension
09h 58m 46s
True Declination
0° 00' 00"
Sunlit
Object was in daylight at epoch
Visualization orbit readout
Latitude
Unknown
Longitude
Unknown
Altitude
Unknown
Speed
Unknown
Apparent Right ascension
Unknown
Apparent Declination
Unknown
Sunlit
N/A
Visualization observer readout
Local Sidereal Time
00:15:51
Azimuth
Unknown
Elevation
Unknown
Doppler factor
Unknown
Orbital elements
Apogee altitude
35,310.612 km
Perigee altitude
8,498.216 km
Semi-major axis
28,282.551 km
Eccentricity
0.47401
Inclination
19.8063°
RAAN
149.7374°
Arg. of periapsis
152.2281°
True anomaly
207.74661°
Mean anomaly
244.1045°
Eccentric anomaly
224.92539°
Mean motion
0.45632 °/min
Orbital period
788.93 mins
BSTAR
0
Loading maneuver chart data...
Computing Atmospheric mass density...

Documentation

Showing up to 5 results
|